Tracking 31027 objects as of 19-Jul-2025
HD Live streaming from Space Station
objects crossing your sky now

ONEWEB-0615

Track ONEWEB-0615 now!
10-day predictions
ONEWEB-0615 is classified as:


NORAD ID: 54676
Int'l Code: 2022-166AL
Perigee: 1,183.4 km
Apogee: 1,186.4 km
Inclination: 87.9 °
Period: 108.9 minutes
Semi major axis: 7555 km
RCS: Unknown
Launch date: December 8, 2022
Source: United Kingdom (UK)
Launch site: AIR FORCE EASTERN TEST RANGE (AFETR)
Your satellite tracking list
FLOCK 4V 13
Track 1 satellite(s)




NASA's NSSDC Master Catalog

Two Line Element Set (TLE):
1 54676U 22166AL  25199.35498442  .00000017  00000-0  96903-5 0  9990
2 54676  87.9278 310.5847 0002040 100.1218 260.0146 13.21826168127342
Source of the keplerian elements: AFSPC